Imperial Beach, CA

2:45 PM PDT on April 24, 2017 (GMT -0700)
Imperial Beach Naval Outlying Field

Weather History for KNRS - May, 2013

Change the Weather History Date:

Tuesday, May 7, 2013

  Actual Average Record
Temperature  
Mean Temperature 61 °F -  
Max Temperature 69 °F 64 °F 79 °F (2007)
Min Temperature 54 °F 56 °F 53 °F (2012)
Degree Days  
Heating Degree Days 4    
Growing Degree Days 11 (Base 50)    
Moisture  
Dew Point 56 °F    
Average Humidity 82    
Maximum Humidity 94    
Minimum Humidity 61    
Precipitation  
Precipitation 0.02 in - - ()
Sea Level Pressure  
Sea Level Pressure 30.04 in    
Wind  
Wind Speed 7 mph (SW)    
Max Wind Speed 12 mph    
Max Gust Speed 20 mph    
Visibility 10 miles    
Events Rain    
Averages and records for this station are not official NWS values.
T = Trace of Precipitation, MM = Missing Value Source: NWS Daily Summary

Daily Weather History Graph

Daily Weather History Graph

Search for Another Location

Airport or City:

Trip Planner

Search our weather history database for the weather conditions in past years. The results will help you decide how hot, cold, wet, or windy it might be!

Date:

Astronomy

May. 07, 2013 Rise Set
Actual Time 5:55 AM PDT 7:34 PM PDT
Civil Twilight 5:29 AM PDT 8:01 PM PDT
Nautical Twilight 4:57 AM PDT 8:33 PM PDT
Astronomical Twilight 4:23 AM PDT 9:06 PM PDT
Moon 4:25 AM PDT (5/7) 5:44 PM PDT (5/7)
Length of Visible Light 14h 31m
Length of Day
13h 38m
Waning Crescent, 5% of the Moon is Illuminated
May 7
Waning Crescent
May 9
New
May 17
First Quarter
May 24
Full
May 31
Last Quarter

Hourly Weather History & Observations

Time (PDT) Temp. Dew Point Humidity Pressure Visibility Wind Dir Wind Speed Gust Speed Precip Events Conditions
12:19 AM 60.8 °F 57.2 °F 88% 30.04 in 10.0 mi South 6.9 mph - 0.00 in   Overcast
12:56 AM 61.0 °F 57.9 °F 90% 30.03 in 10.0 mi South 8.1 mph - 0.00 in   Overcast
1:10 AM 60.8 °F 57.2 °F 88% 30.03 in 10.0 mi South 4.6 mph - N/A   Overcast
1:41 AM 60.8 °F 57.2 °F 88% 30.02 in 8.0 mi South 5.8 mph - N/A   Overcast
1:56 AM 61.0 °F 57.9 °F 90% 30.02 in 4.0 mi SSE 4.6 mph - 0.02 in Rain Heavy Rain
2:05 AM 60.8 °F 57.2 °F 88% 30.02 in 10.0 mi South 6.9 mph 17.3 mph 0.00 in Rain Light Rain
2:11 AM 60.8 °F 59.0 °F 94% 30.01 in 10.0 mi SSW 5.8 mph - 0.00 in   Overcast
2:23 AM 60.8 °F 59.0 °F 94% 30.02 in 10.0 mi SW 10.4 mph - 0.00 in   Overcast
2:33 AM 60.8 °F 59.0 °F 94% 30.02 in 10.0 mi SW 10.4 mph - 0.00 in   Overcast
2:41 AM 60.8 °F 57.2 °F 88% 30.02 in 10.0 mi West 10.4 mph - 0.00 in   Overcast
2:52 AM 60.8 °F 57.2 °F 88% 30.02 in 10.0 mi West 10.4 mph - 0.00 in   Overcast
2:56 AM 61.0 °F 57.9 °F 90% 30.02 in 10.0 mi West 9.2 mph - 0.00 in   Overcast
3:11 AM 60.8 °F 57.2 °F 88% 30.02 in 10.0 mi West 9.2 mph - N/A   Overcast
3:56 AM 60.1 °F 57.0 °F 90% 30.01 in 10.0 mi Calm Calm - N/A   Overcast
4:56 AM 60.1 °F 57.9 °F 93% 30.01 in 7.0 mi Calm Calm - N/A   Overcast
5:56 AM 61.0 °F 57.9 °F 90% 30.02 in 10.0 mi Calm Calm - N/A   Overcast
6:33 AM 60.8 °F 57.2 °F 88% 30.03 in 7.0 mi SW 3.5 mph - N/A   Overcast
6:56 AM 62.1 °F 59.0 °F 90% 30.03 in 8.0 mi WSW 5.8 mph - N/A   Overcast
7:27 AM 62.6 °F 57.2 °F 82% 30.03 in 9.0 mi SW 9.2 mph - N/A   Mostly Cloudy
7:43 AM 62.6 °F 59.0 °F 88% 30.03 in 10.0 mi SW 9.2 mph - N/A   Mostly Cloudy
7:56 AM 63.0 °F 57.9 °F 84% 30.03 in 10.0 mi WSW 10.4 mph - N/A   Mostly Cloudy
8:56 AM 62.1 °F 54.0 °F 75% 30.06 in 10.0 mi WSW 10.4 mph - N/A   Mostly Cloudy
9:56 AM 64.0 °F 51.1 °F 63% 30.06 in 10.0 mi SSW 8.1 mph - N/A   Mostly Cloudy
10:56 AM 66.9 °F 53.1 °F 61% 30.06 in 10.0 mi SW 8.1 mph - N/A   Mostly Cloudy
11:56 AM 64.9 °F 55.0 °F 70% 30.07 in 10.0 mi SSW 8.1 mph - N/A   Mostly Cloudy
12:56 PM 66.0 °F 54.0 °F 65% 30.07 in 10.0 mi SW 9.2 mph - N/A   Mostly Cloudy
1:56 PM 66.9 °F 54.0 °F 63% 30.06 in 10.0 mi WSW 11.5 mph - N/A   Mostly Cloudy
2:56 PM 68.0 °F 55.0 °F 63% 30.05 in 10.0 mi WSW 10.4 mph - N/A   Mostly Cloudy
3:56 PM 66.9 °F 54.0 °F 63% 30.04 in 10.0 mi SW 10.4 mph 19.6 mph N/A   Mostly Cloudy
4:56 PM 66.9 °F 54.0 °F 63% 30.04 in 10.0 mi WSW 9.2 mph - N/A   Mostly Cloudy
5:56 PM 64.9 °F 54.0 °F 68% 30.04 in 10.0 mi West 8.1 mph - N/A   Scattered Clouds
6:56 PM 64.0 °F 54.0 °F 70% 30.04 in 10.0 mi West 8.1 mph - N/A   Scattered Clouds
7:56 PM 62.1 °F 54.0 °F 75% 30.06 in 10.0 mi SW 5.8 mph - N/A   Scattered Clouds
8:56 PM 61.0 °F 54.0 °F 78% 30.07 in 10.0 mi SW 3.5 mph - N/A   Scattered Clouds
9:56 PM 55.0 °F 52.0 °F 89% 30.08 in 10.0 mi Calm Calm - N/A   Scattered Clouds
10:56 PM 54.0 °F 52.0 °F 93% 30.09 in 10.0 mi Calm Calm - N/A   Mostly Cloudy
11:56 PM 54.0 °F 52.0 °F 93% 30.10 in 10.0 mi SSE 3.5 mph - N/A   Clear